Regional Weather Roundup
Issued by NWS

Home | Current Version | Previous Version | Text Only | Print | Product List | Glossary Off
Versions: 1 2 3 4 5 6 7 8 9 10 11 12 13 14 15 16 17 18 19 20 21 22 23 24 25 26 27 28 29 30 31 32 33 34 35 36 37 38 39 40 41 42 43 44 45 46 47 48 49 50

000
ASUS43 KDTX 061401
RWRMI
MICHIGAN HOURLY REGIONAL WEATHER ROUNDUP
NATIONAL WEATHER SERVICE DETROIT/PONTIAC MI
900 AM EST FRI MAR 06 2015

NOTE: "FAIR" INDICATES FEW OR NO CLOUDS BELOW 12,000 FEET WITH NO
SIGNIFICANT WEATHER AND/OR OBSTRUCTION TO VISIBILITY.

MIZ047>049-052>055-059>063-066>070-074>076-081>083-061500-
SOUTHEAST LOWER MICHIGAN

CITY           SKY/WX    TMP DP  RH WIND       PRES   REMARKS
ADRIAN         MOSUNNY    4   1  88 SW6       30.49R WCI  -7
ALMA           MOSUNNY    6   2  84 SW9       30.39S WCI  -8
ANN ARBOR      MOSUNNY    3   0  87 SW5       30.47R WCI  -6
BAD AXE        SUNNY      7   3  82 S8        30.40S WCI  -5
CARO           MOSUNNY    8   3  79 SW10      30.40F WCI  -6
DETROIT CITY   SUNNY     14   3  61 SW12      30.48S WCI   0
DETROIT        MOSUNNY    8   2  76 S7        30.50R WCI  -3
FLINT          MOSUNNY   10   2  69 SW7       30.42F WCI  -1
GROSSE ILE     MOSUNNY   10   5  79 S8        30.49R WCI  -1
HILLSDALE      SUNNY      7   2  78 SW7       30.42S WCI  -4
HOWELL         MOSUNNY    9   2  75 SW9       30.41F WCI  -5

CITY           SKY/WX    TMP DP  RH WIND       PRES   REMARKS
JACKSON        SUNNY      8   2  76 SW9       30.42F WCI  -5
LAMBERTVILLE   MOSUNNY   14   7  73 SW6       30.51R WCI   5
LANSING        MOSUNNY    9   1  70 SW13      30.42F WCI  -7
LAPEER         FAIR       9   4  82 SW9       30.42S WCI  -4
MASON          MOSUNNY    6   2  85 S3        30.42F
MONROE         MOSUNNY    7   1  78 SW8       30.49R WCI  -6
MT. CLEMENS    SUNNY      0  -6  77 CALM      30.45S
PONTIAC        MOSUNNY    7   2  80 SW7       30.42S WCI  -5
PORT HOPE        N/A      8   0  69 VRB6      30.38S WCI  -2
PORT HURON     MOSUNNY    7   1  78 S6        30.46F WCI  -3
TRI CITIES     SUNNY      7   1  76 S9        30.40F WCI  -7
TROY           SUNNY     13   3  65 SW7       30.48S WCI   2
SAGINAW HB     SUNNY     10   3  72 S15       30.40F WCI  -6
$$
MIZ043>046-050>051-056>058-064>065-071>073-077>080-061500-
SOUTHWEST LOWER MICHIGAN

CITY           SKY/WX    TMP DP  RH WIND       PRES   REMARKS
BATTLE CREEK   MOSUNNY    6  -1  73 SW9       30.42S WCI  -8
BENTON HARBOR  MOSUNNY    5  -1  76 S9        30.45S WCI  -9
BIG RAPIDS     FLURRIES  13  10  87 SW8       30.32S WCI   2
COLDWATER      SUNNY      5   0  80 SW9       30.45S WCI  -9
FREMONT        LGT SNOW  11   6  82 S6        30.36S WCI   1
HOLLAND        MOSUNNY    8   2  76 S12       30.42S WCI  -7
GRAND RAPIDS   CLOUDY     8   2  76 S12       30.40S WCI  -7
IONIA          FAIR       8   1  73 SW10      30.39S WCI  -6
KALAMAZOO      MOSUNNY    5  -1  76 SW10      30.44S WCI -10
LUDINGTON      SUNNY     19   9  65 SW15      30.32F WCI   4
MARSHALL       MOSUNNY  N/A N/A N/A SW8       30.43S
MOUNT PLEASANT LGT SNOW   9   4  80 S5        30.36S WCI   1
MUSKEGON       PTSUNNY   17  10  74 S10       30.39R WCI   5
SOUTH HAVEN    MOSUNNY    9   1  67 SW7       30.43S WCI  -2
$$
MIZ016>042-061500-
NORTHERN LOWER MICHIGAN

CITY           SKY/WX    TMP DP  RH WIND       PRES   REMARKS
ALPENA         MOSUNNY   10   3  73 SW12      30.28F WCI  -5
BEAVER ISLAND  SUNNY     13   6  72 SW13G18   30.22R WCI  -1
BELLAIRE       SUNNY     12   7  78 S7        30.28S WCI   2
CADILLAC       LGT SNOW  10   7  86 SW9       30.24F WCI  -3
CHARLEVOIX     SUNNY     12   5  73 CALM      30.26F
FRANKFORT      SUNNY     19  10  68 SW13G22   30.27F WCI   6
GAYLORD        SUNNY      9   4  80 SW17G28   30.20S WCI  -9
GRAYLING       SUNNY      8   4  83 SW10      30.25F WCI  -6
HARBOR SPRINGS PTSUNNY    9   4  78 SW6       30.23F WCI  -1
HOUGHTON LAKE  MOSUNNY    7   2  80 S8        30.28F WCI  -6
MANISTEE       SUNNY     10   5  79 S5        30.30F WCI   2
OSCODA         SUNNY      7   1  79 SW14      30.33F WCI -10
PELLSTON       SUNNY     12   4  70 SW8G21    30.23F WCI   0
ROGERS CITY    SUNNY      9   4  78 SW13      30.25F WCI  -7
TRAVERSE CITY  PTSUNNY   14   6  70 SW12G17   30.26F WCI   0
$$
MIZ007>008-015-061500-
EASTERN UPPER MICHIGAN

CITY           SKY/WX    TMP DP  RH WIND       PRES   REMARKS
KINROSS        MOSUNNY    9   3  78 SW7       30.19S WCI  -3
MACKINAC ISLAN MOSUNNY   11   3  70 SW10G17   30.21S WCI  -3
NEWBERRY       MOSUNNY    7   1  76 SW16G26   30.14F WCI -11
S. S. MARIE    MOSUNNY   -3  -7  82 E3        30.19F
MUNISING         N/A      9  -4  55 S16       30.10F WCI  -8
$$
MIZ004>006-011>014-085-061500-
CENTRAL UPPER MICHIGAN

CITY           SKY/WX    TMP DP  RH WIND       PRES   REMARKS
MANISTIQUE     MOSUNNY    8   0  72 SW14      30.18F WCI  -9
ESCANABA       MOSUNNY    3  -2  78 SW8       30.18F WCI -10
MENOMINEE      MOSUNNY    5  -2  72 SW10G18   30.20F WCI -10
SAWYER-GWINN   SUNNY      3  -4  72 SW9       30.05F WCI -11
$$
MIZ001>003-009>011-084-061500-
WESTERN UPPER MICHIGAN

CITY           SKY/WX    TMP DP  RH WIND       PRES   REMARKS
IRON MOUNTAIN  MOSUNNY    2  -6  69 SE6       30.08F WCI  -9
HOUGHTON       CLOUDY     9  -1  64 SW6       29.94F WCI  -1
COPPER HARBOR    N/A     11  -1  58 MISG      29.96S
IRONWOOD       CLOUDY    10   3  72 SW14G24   29.95S WCI  -5
$$

ABBREVIATIONS USED IN REMARKS
   TC - TEMPERATURE IN CELSIUS
  WCI - WIND CHILL INDEX
   HX - HEAT INDEX
  VSB - VISIBILITY



USA.gov is the U.S. government's official web portal to all federal, state and local government web resources and services.